This is the latest recevied weather packets stored in our database for station/object KE5VT. If no packets are shown the sender has not sent any weather packets the latest 10 day(s).
| Time | Temp. | Humidity | Pressure | Rain* | Wind** | Luminosity | Snow |
|---|---|---|---|---|---|---|---|
| 1787627057 | 23.33° C | 72% | 1013.5 hPa | 0 mm | - | 0 W/m² | - |
| 1787626753 | 23.89° C | 70% | 1013.6 hPa | 0 mm | - | 0 W/m² | - |
| 1787626448 | 23.89° C | 71% | 1013.6 hPa | 0 mm | - | 0 W/m² | - |
| 1787626142 | 23.89° C | 68% | 1013.4 hPa | 0 mm | - | 0 W/m² | - |
| 1787625837 | 23.89° C | 67% | 1013.4 hPa | 0 mm | - | 0 W/m² | - |
| 1787625533 | 24.44° C | 69% | 1013.4 hPa | 0 mm | - | 0 W/m² | - |
| 1787625229 | 24.44° C | 68% | 1013.2 hPa | 0 mm | - | 0 W/m² | - |
| 1787624925 | 24.44° C | 67% | 1013.3 hPa | 0 mm | - | 0 W/m² | - |
| 1787624624 | 24.44° C | 68% | 1013.3 hPa | 0 mm | - | 0 W/m² | - |
| 1787624320 | 24.44° C | 67% | 1013.3 hPa | 0 mm | - | 0 W/m² | - |
| 1787624017 | 25° C | 66% | 1013.5 hPa | 0 mm | - | 0 W/m² | - |
| 1787623716 | 25° C | 67% | 1013.3 hPa | 0 mm | - | 0 W/m² | - |
| 1787623415 | 25° C | 65% | 1013.1 hPa | 0 mm | - | 0 W/m² | - |
| 1787623114 | 25.56° C | 65% | 1013 hPa | 0 mm | - | 0 W/m² | - |
| 1787622810 | 25.56° C | 62% | 1012.8 hPa | 0 mm | - | 0 W/m² | - |
| 1787622507 | 25.56° C | 63% | 1012.7 hPa | 0 mm | - | 0 W/m² | - |
| 1787622202 | 25.56° C | 64% | 1012.6 hPa | 0 mm | - | 0 W/m² | - |
| 1787621902 | 25.56° C | 63% | 1012.5 hPa | 0 mm | - | 0 W/m² | - |
| 1787621597 | 25.56° C | 63% | 1012.7 hPa | 0 mm | - | 0 W/m² | - |
| 1787621292 | 26.11° C | 60% | 1012.5 hPa | 0 mm | - | 0 W/m² | - |
| 1787620989 | 26.11° C | 60% | 1012.2 hPa | 0 mm | - | 0 W/m² | - |
| 1787620689 | 26.11° C | 59% | 1012.4 hPa | 0 mm | - | 0 W/m² | - |
| 1787620384 | 26.11° C | 59% | 1012.1 hPa | 0 mm | - | 0 W/m² | - |
| 1787620080 | 26.11° C | 58% | 1012.1 hPa | 0 mm | - | 0 W/m² | - |
| 1787619774 | 26.11° C | 58% | 1012 hPa | 0 mm | - | 0 W/m² | - |
* Rain latest hour (hover to see other rain measurements)
** Current wind speed in m/s (hover to see current wind gust speed)